Location: Plum
(40.5000°N, 79.7500°W)
Time: 21:50:14
(UTC-04:00)

MOZ.5/SAFIR/RUBIN 5/SL-8 - Visible Passes

Search period start: 01 September 2014 00:00
Search period end: 11 September 2014 00:00
Orbit: 680 x 709 km, 97.8° (Epoch: 31 August)

Date Brightness Start Highest point End Pass type
(mag) Time Alt. Az. Time Alt. Az. Time Alt. Az.
01 Sep 7.1 05:27:47 10° E 05:30:31 15° ENE 05:33:15 10° NNE visible
01 Sep 6.6 20:39:58 10° NNW 20:43:31 22° WNW 20:47:03 10° WSW visible
02 Sep 5.7 06:06:11 10° SE 06:10:31 36° ENE 06:14:50 10° N visible
03 Sep 7.5 05:12:55 10° ENE 05:13:51 11° ENE 05:14:47 10° NE visible
03 Sep 5.9 20:22:40 10° N 20:26:46 31° WNW 20:30:50 10° SW visible
04 Sep 6.4 05:49:53 10° ESE 05:53:45 25° ENE 05:57:36 10° NNE visible
04 Sep 7.2 21:04:34 10° NW 21:06:43 13° WNW 21:08:51 10° W visible
05 Sep 5.1 20:05:31 10° N 20:09:57 46° WNW 20:14:22 10° SW visible
06 Sep 6.9 05:33:52 10° ESE 05:37:01 18° ENE 05:40:09 10° NNE visible
06 Sep 6.8 20:46:47 10° NNW 20:50:00 19° WNW 20:53:13 10° WSW visible
07 Sep 5.3 06:12:36 10° SE 06:17:03 43° ENE 06:21:30 10° N visible
08 Sep 7.3 05:18:23 10° E 05:20:19 12° ENE 05:22:15 10° NE visible
08 Sep 6.2 20:29:23 10° NNW 20:33:15 27° WNW 20:37:07 10° SW visible
09 Sep 6.0 05:56:11 10° SE 06:00:15 30° ENE 06:04:19 10° N visible
09 Sep 7.4 21:11:52 10° NW 21:13:10 11° WNW 21:14:27 10° WNW visible
10 Sep 5.5 20:12:10 10° N 20:16:28 39° WNW 20:20:45 10° SW visible
